Location: Breux
(46.3269°N, 3.2993°E)
Time: 09:18:11
(UTC+00:00)

Cosmos 1980 Rocket - Pass Details

Date: 09 April 2020
Orbit: 828 x 851 km, 71.0° (Epoch: 04 June)

Event Time Altitude Azimuth Distance (km) Brightness Sun altitude
Rises 19:52:53 0° 341° (NNW) 3,386 6.1 -14.7°
Reaches altitude 10° 19:56:31 10° 5° (N) 2,453 4.9 -15.2°
Maximum altitude 19:59:39 15° 39° (NE) 2,121 4.2 -15.7°
Enters shadow 20:02:32 11° 71° (ENE) 2,406 4.2 -16.1°
